QPF
0.70 0.73 0.76 0.86 0.82 0.81 0.81 0.82 0.79 0.74 0.69 0.69 0.70 0.72 0.72 0.72 0.69 0.65 0.61 0.56 0.49 0.39 0.30 0.25 0.19 0.15 0.11 0.09 0.08 0.07 0.06 0.05 0.07 0.08 0.07 0.05 0.03 0.02 0.01 0.00 0.00 0.00 0.00 0.00 0.00 0.00 0.00 0.00 0.00 0.00 0.00 0.00 0.00 0.00 0.00 0.00 0.00 0.00 0.00 0.00 0.01 0.01 0.01 0.01 0.01 0.01 0.01 0.01 0.01
0.84 0.82 0.81 0.83 0.80 0.77 0.75 0.77 0.76 0.72 0.67 0.65 0.66 0.67 0.68 0.69 0.67 0.64 0.60 0.54 0.47 0.39 0.31 0.22 0.18 0.16 0.15 0.15 0.17 0.16 0.12 0.02 0.02 0.02 0.02 0.01 0.01 0.01 0.02 0.02 0.02 0.01 0.01 0.00 0.00 0.00 0.00 0.00 0.01 0.01 0.00 0.00 0.00 0.00 0.00 0.00 0.00 0.00 0.00 0.00 0.00 0.01 0.01 0.02 0.01 0.01 0.01 0.01 0.01
0.70 0.68 0.66 0.68 0.68 0.67 0.65 0.65 0.66 0.64 0.61 0.58 0.55 0.52 0.49 0.46 0.38 0.33 0.30 0.25 0.21 0.17 0.13 0.07 0.06 0.04 0.03 0.03 0.03 0.03 0.02 0.00 0.00 0.00 0.00 0.00 0.00 0.00 0.00 0.00 0.01 0.01 0.01 0.01 0.01 0.01 0.01 0.01 0.01 0.02 0.01 0.01 0.01 0.01 0.00 0.00 0.00 0.00 0.00 0.00 0.00 0.01 0.01 0.01 0.01 0.01 0.01 0.01 0.01
0.52 0.48 0.45 0.47 0.48 0.47 0.45 0.44 0.43 0.41 0.39 0.38 0.35 0.33 0.30 0.27 0.18 0.12 0.09 0.06 0.05 0.03 0.02 0.01 0.01 0.00 0.00 0.00 0.00 0.00 0.00 0.00 0.00 0.00 0.00 0.00 0.00 0.00 0.00 0.00 0.00 0.00 0.00 0.01 0.01 0.01 0.01 0.01 0.01 0.01 0.01 0.01 0.01 0.01 0.00 0.00 0.00 0.00 0.00 0.00 0.00 0.00 0.01 0.01 0.01 0.01 0.01 0.01 0.01
0.33 0.29 0.27 0.30 0.28 0.24 0.19 0.16 0.14 0.13 0.13 0.13 0.13 0.12 0.11 0.10 0.06 0.03 0.02 0.02 0.01 0.01 0.00 0.00 0.00 0.00 0.00 0.00 0.00 0.00 0.00 0.00 0.00 0.00 0.00 0.00 0.00 0.00 0.00 0.00 0.00 0.00 0.00 0.00 0.01 0.01 0.01 0.01 0.02 0.01 0.01 0.00 0.00 0.00 0.00 0.00 0.00 0.00 0.00 0.00 0.00 0.00 0.00 0.00 0.01 0.01 0.01 0.01 0.01
0.17 0.14 0.13 0.13 0.11 0.09 0.07 0.05 0.04 0.04 0.03 0.03 0.03 0.02 0.02 0.02 0.01 0.00 0.00 0.00 0.00 0.00 0.00 0.00 0.00 0.00 0.00 0.00 0.00 0.00 0.00 0.00 0.00 0.00 0.00 0.00 0.00 0.00 0.00 0.00 0.00 0.00 0.00 0.00 0.00 0.00 0.00 0.00 0.01 0.01 0.01 0.01 0.01 0.00 0.00 0.00 0.00 0.00 0.00 0.01 0.00 0.00 0.00 0.00 0.00 0.01 0.01 0.01 0.01
0.05 0.05 0.04 0.03 0.03 0.02 0.02 0.02 0.02 0.02 0.01 0.01 0.01 0.00 0.00 0.00 0.00 0.00 0.00 0.00 0.00 0.00 0.00 0.00 0.00 0.00 0.00 0.00 0.00 0.00 0.00 0.00 0.00 0.00 0.00 0.00 0.00 0.00 0.00 0.00 0.00 0.00 0.00 0.00 0.00 0.00 0.00 0.00 0.00 0.00 0.00 0.01 0.01 0.01 0.00 0.00 0.00 0.01 0.01 0.01 0.01 0.00 0.00 0.00 0.00 0.00 0.01 0.01 0.01
0.01 0.01 0.01 0.02 0.02 0.02 0.02 0.02 0.01 0.01 0.00 0.00 0.00 0.00 0.00 0.00 0.00 0.00 0.00 0.00 0.00 0.00 0.00 0.00 0.00 0.00 0.00 0.00 0.00 0.00 0.00 0.00 0.00 0.00 0.00 0.00 0.00 0.00 0.00 0.00 0.00 0.00 0.00 0.00 0.00 0.00 0.00 0.00 0.00 0.00 0.00 0.01 0.01 0.01 0.01 0.01 0.01 0.01 0.01 0.01 0.01 0.01 0.00 0.00 0.00 0.00 0.00 0.01 0.01
0.00 0.00 0.00 0.00 0.00 0.00 0.00 0.00 0.00 0.00 0.00 0.00 0.00 0.00 0.00 0.00 0.00 0.00 0.00 0.00 0.00 0.00 0.00 0.00 0.00 0.00 0.00 0.00 0.00 0.00 0.00 0.00 0.00 0.00 0.00 0.00 0.00 0.00 0.00 0.00 0.00 0.00 0.00 0.00 0.00 0.00 0.00 0.00 0.00 0.00 0.00 0.00 0.01 0.01 0.01 0.01 0.01 0.01 0.02 0.01 0.01 0.01 0.01 0.00 0.00 0.00 0.00 0.00 0.00
0.00 0.00 0.00 0.00 0.00 0.00 0.00 0.00 0.00 0.00 0.00 0.00 0.00 0.00 0.00 0.00 0.00 0.00 0.00 0.00 0.00 0.00 0.00 0.00 0.00 0.00 0.00 0.00 0.00 0.00 0.00 0.00 0.00 0.00 0.00 0.00 0.00 0.00 0.00 0.00 0.00 0.00 0.00 0.00 0.00 0.00 0.00 0.00 0.00 0.00 0.00 0.00 0.00 0.01 0.01 0.01 0.01 0.01 0.01 0.01 0.01 0.01 0.00 0.00 0.00 0.00 0.00 0.00 0.00
0.00 0.00 0.00 0.00 0.00 0.00 0.00 0.00 0.00 0.00 0.00 0.00 0.00 0.00 0.00 0.00 0.00 0.00 0.00 0.00 0.00 0.00 0.00 0.00 0.00 0.00 0.00 0.00 0.00 0.00 0.00 0.00 0.00 0.00 0.00 0.00 0.00 0.00 0.00 0.00 0.00 0.00 0.00 0.00 0.00 0.00 0.00 0.00 0.00 0.00 0.00 0.00 0.00 0.00 0.00 0.01 0.01 0.01 0.01 0.01 0.01 0.01 0.01 0.01 0.00 0.00 0.00 0.00 0.00
0.00 0.00 0.00 0.00 0.00 0.00 0.00 0.00 0.00 0.00 0.00 0.00 0.00 0.00 0.00 0.00 0.00 0.00 0.00 0.00 0.00 0.00 0.00 0.00 0.00 0.00 0.00 0.00 0.00 0.00 0.00 0.00 0.00 0.00 0.00 0.00 0.00 0.00 0.00 0.00 0.00 0.00 0.00 0.00 0.00 0.00 0.00 0.00 0.00 0.00 0.00 0.00 0.00 0.00 0.00 0.00 0.00 0.00 0.00 0.01 0.01 0.01 0.01 0.01 0.01 0.01 0.00 0.00 0.00
0.00 0.00 0.00 0.00 0.00 0.00 0.00 0.00 0.00 0.00 0.00 0.00 0.00 0.00 0.00 0.00 0.00 0.00 0.00 0.00 0.00 0.00 0.00 0.00 0.00 0.00 0.00 0.00 0.00 0.00 0.00 0.00 0.00 0.00 0.00 0.00 0.00 0.00 0.00 0.00 0.00 0.00 0.00 0.00 0.00 0.00 0.00 0.00 0.00 0.00 0.00 0.00 0.00 0.00 0.00 0.00 0.00 0.00 0.00 0.00 0.00 0.00 0.01 0.01 0.00 0.00 0.00 0.00 0.01
0.00 0.00 0.00 0.00 0.00 0.00 0.00 0.00 0.00 0.00 0.00 0.00 0.00 0.00 0.00 0.00 0.00 0.00 0.00 0.00 0.00 0.00 0.00 0.00 0.00 0.00 0.00 0.00 0.00 0.00 0.00 0.00 0.00 0.00 0.00 0.00 0.00 0.00 0.00 0.00 0.00 0.00 0.00 0.00 0.00 0.00 0.00 0.00 0.00 0.00 0.00 0.00 0.00 0.00 0.00 0.00 0.00 0.00 0.00 0.00 0.00 0.00 0.00 0.00 0.00 0.00 0.00 0.00 0.01
0.00 0.00 0.00 0.00 0.00 0.00 0.00 0.00 0.00 0.00 0.00 0.00 0.00 0.00 0.00 0.00 0.00 0.00 0.00 0.00 0.00 0.00 0.00 0.00 0.00 0.00 0.00 0.00 0.00 0.00 0.00 0.00 0.00 0.00 0.00 0.00 0.00 0.00 0.00 0.00 0.00 0.00 0.00 0.00 0.00 0.00 0.00 0.00 0.00 0.00 0.00 0.00 0.00 0.00 0.00 0.00 0.00 0.00 0.00 0.00 0.00 0.00 0.00 0.00 0.00 0.00 0.00 0.00 0.01
0.00 0.00 0.00 0.00 0.00 0.00 0.00 0.00 0.00 0.00 0.00 0.00 0.00 0.00 0.00 0.00 0.00 0.00 0.00 0.00 0.00 0.00 0.00 0.00 0.00 0.00 0.00 0.00 0.00 0.00 0.00 0.00 0.00 0.00 0.00 0.00 0.00 0.00 0.00 0.00 0.00 0.00 0.00 0.00 0.00 0.00 0.00 0.00 0.00 0.00 0.00 0.00 0.00 0.00 0.00 0.00 0.00 0.00 0.00 0.00 0.00 0.00 0.00 0.00 0.00 0.00 0.00 0.00 0.00
0.00 0.00 0.00 0.00 0.00 0.00 0.00 0.00 0.00 0.00 0.00 0.00 0.00 0.00 0.00 0.00 0.00 0.00 0.00 0.00 0.00 0.00 0.00 0.00 0.00 0.00 0.00 0.00 0.00 0.00 0.00 0.00 0.00 0.00 0.00 0.00 0.00 0.00 0.00 0.00 0.00 0.00 0.00 0.00 0.00 0.00 0.00 0.00 0.00 0.00 0.00 0.00 0.00 0.00 0.00 0.00 0.00 0.00 0.00 0.00 0.00 0.00 0.00 0.00 0.00 0.00 0.00 0.00 0.00
0.00 0.00 0.00 0.00 0.00 0.00 0.00 0.00 0.00 0.00 0.00 0.00 0.00 0.00 0.00 0.00 0.00 0.00 0.00 0.00 0.00 0.00 0.00 0.00 0.00 0.00 0.00 0.00 0.00 0.00 0.00 0.00 0.00 0.00 0.00 0.00 0.00 0.00 0.00 0.00 0.00 0.00 0.00 0.00 0.00 0.00 0.00 0.00 0.00 0.00 0.00 0.00 0.00 0.00 0.00 0.00 0.00 0.00 0.00 0.00 0.00 0.00 0.00 0.00 0.00 0.00 0.00 0.00 0.00
0.00 0.00 0.00 0.00 0.00 0.00 0.00 0.00 0.00 0.00 0.00 0.00 0.00 0.00 0.00 0.00 0.00 0.00 0.00 0.00 0.00 0.00 0.00 0.00 0.00 0.00 0.00 0.00 0.00 0.00 0.00 0.00 0.00 0.00 0.00 0.00 0.00 0.00 0.00 0.00 0.00 0.00 0.00 0.00 0.00 0.00 0.00 0.00 0.00 0.00 0.00 0.00 0.00 0.00 0.00 0.00 0.00 0.00 0.00 0.00 0.00 0.00 0.00 0.00 0.00 0.00 0.00 0.00 0.00
0.00 0.00 0.00 0.00 0.00 0.00 0.00 0.00 0.00 0.00 0.00 0.00 0.00 0.00 0.00 0.00 0.00 0.00 0.00 0.00 0.00 0.00 0.00 0.00 0.00 0.00 0.00 0.00 0.00 0.00 0.00 0.00 0.00 0.00 0.00 0.00 0.00 0.00 0.00 0.00 0.00 0.00 0.00 0.00 0.00 0.00 0.00 0.00 0.00 0.00 0.00 0.00 0.00 0.00 0.00 0.00 0.00 0.00 0.00 0.00 0.00 0.00 0.00 0.00 0.00 0.00 0.00 0.00 0.00
0.00 0.00 0.00 0.00 0.00 0.00 0.00 0.00 0.00 0.00 0.00 0.00 0.00 0.00 0.00 0.00 0.00 0.00 0.00 0.00 0.00 0.00 0.00 0.00 0.00 0.00 0.00 0.00 0.00 0.00 0.00 0.00 0.00 0.00 0.00 0.00 0.00 0.00 0.00 0.00 0.00 0.00 0.00 0.00 0.00 0.00 0.00 0.00 0.00 0.00 0.00 0.00 0.00 0.00 0.00 0.00 0.00 0.00 0.00 0.00 0.00 0.00 0.00 0.00 0.00 0.00 0.00 0.00 0.00
0.00 0.00 0.00 0.00 0.00 0.00 0.00 0.00 0.00 0.00 0.00 0.00 0.00 0.00 0.00 0.00 0.00 0.00 0.00 0.00 0.00 0.00 0.00 0.00 0.00 0.00 0.00 0.00 0.00 0.00 0.00 0.00 0.00 0.00 0.00 0.00 0.00 0.00 0.00 0.00 0.00 0.00 0.00 0.00 0.00 0.00 0.00 0.00 0.00 0.00 0.00 0.00 0.00 0.00 0.00 0.00 0.00 0.00 0.00 0.00 0.00 0.00 0.00 0.00 0.00 0.00 0.00 0.00 0.00
0.00 0.00 0.00 0.00 0.00 0.00 0.00 0.00 0.00 0.00 0.00 0.00 0.00 0.00 0.00 0.00 0.00 0.00 0.00 0.00 0.00 0.00 0.00 0.00 0.00 0.00 0.00 0.00 0.00 0.00 0.00 0.00 0.00 0.00 0.00 0.00 0.00 0.00 0.00 0.00 0.00 0.00 0.00 0.00 0.00 0.00 0.00 0.00 0.00 0.00 0.00 0.00 0.00 0.00 0.00 0.00 0.00 0.00 0.00 0.00 0.00 0.00 0.00 0.00 0.00 0.00 0.00 0.00 0.00
0.00 0.00 0.00 0.00 0.00 0.00 0.00 0.00 0.00 0.00 0.00 0.00 0.00 0.00 0.00 0.00 0.00 0.00 0.00 0.00 0.00 0.00 0.00 0.00 0.00 0.00 0.00 0.00 0.00 0.00 0.00 0.00 0.00 0.00 0.00 0.00 0.00 0.00 0.00 0.00 0.00 0.00 0.00 0.00 0.00 0.00 0.00 0.00 0.00 0.00 0.00 0.00 0.00 0.00 0.00 0.00 0.00 0.00 0.00 0.00 0.00 0.00 0.00 0.00 0.00 0.00 0.00 0.00 0.00
0.00 0.00 0.00 0.00 0.00 0.00 0.00 0.00 0.00 0.00 0.00 0.00 0.00 0.00 0.00 0.00 0.00 0.00 0.00 0.00 0.00 0.00 0.00 0.00 0.00 0.00 0.00 0.00 0.00 0.00 0.00 0.00 0.00 0.00 0.00 0.00 0.00 0.00 0.00 0.00 0.00 0.00 0.00 0.00 0.00 0.00 0.00 0.00 0.00 0.00 0.00 0.00 0.00 0.00 0.00 0.00 0.00 0.00 0.00 0.00 0.00 0.00 0.00 0.00 0.00 0.00 0.00 0.00 0.00
0.00 0.00 0.00 0.00 0.00 0.00 0.00 0.00 0.00 0.00 0.00 0.00 0.00 0.00 0.00 0.00 0.00 0.00 0.00 0.00 0.00 0.00 0.00 0.00 0.00 0.00 0.00 0.00 0.00 0.00 0.00 0.00 0.00 0.00 0.00 0.00 0.00 0.00 0.00 0.00 0.00 0.00 0.00 0.00 0.00 0.00 0.00 0.00 0.00 0.00 0.00 0.00 0.00 0.00 0.00 0.00 0.00 0.00 0.00 0.00 0.00 0.00 0.00 0.00 0.00 0.00 0.00 0.00 0.00
0.00 0.00 0.00 0.00 0.00 0.00 0.00 0.00 0.00 0.00 0.00 0.00 0.00 0.00 0.00 0.00 0.00 0.00 0.00 0.00 0.00 0.00 0.00 0.00 0.00 0.00 0.00 0.00 0.00 0.00 0.00 0.00 0.00 0.00 0.00 0.00 0.00 0.00 0.00 0.00 0.00 0.00 0.00 0.00 0.00 0.00 0.00 0.00 0.00 0.00 0.00 0.00 0.00 0.00 0.00 0.00 0.00 0.00 0.00 0.00 0.00 0.00 0.00 0.00 0.00 0.00 0.00 0.00 0.00
0.00 0.00 0.00 0.00 0.00 0.00 0.00 0.00 0.00 0.00 0.00 0.00 0.00 0.00 0.00 0.00 0.00 0.00 0.00 0.00 0.00 0.00 0.00 0.00 0.00 0.00 0.00 0.00 0.00 0.00 0.00 0.00 0.00 0.00 0.00 0.00 0.00 0.00 0.00 0.00 0.00 0.00 0.00 0.00 0.00 0.00 0.00 0.00 0.00 0.00 0.00 0.00 0.00 0.00 0.00 0.00 0.00 0.00 0.00 0.00 0.00 0.00 0.00 0.00 0.00 0.00 0.00 0.00 0.00
0.00 0.00 0.00 0.00 0.00 0.00 0.00 0.00 0.00 0.00 0.00 0.00 0.00 0.00 0.00 0.00 0.00 0.00 0.00 0.00 0.00 0.00 0.00 0.00 0.00 0.00 0.00 0.00 0.00 0.00 0.00 0.00 0.00 0.00 0.00 0.00 0.00 0.00 0.00 0.00 0.00 0.00 0.00 0.00 0.00 0.00 0.00 0.00 0.00 0.00 0.00 0.00 0.00 0.00 0.00 0.00 0.00 0.00 0.00 0.00 0.00 0.00 0.00 0.00 0.00 0.00 0.00 0.00 0.00
0.00 0.00 0.00 0.00 0.00 0.00 0.00 0.00 0.00 0.00 0.00 0.00 0.00 0.00 0.00 0.00 0.00 0.00 0.00 0.00 0.00 0.00 0.00 0.00 0.00 0.00 0.00 0.00 0.00 0.00 0.00 0.00 0.00 0.00 0.00 0.00 0.00 0.00 0.00 0.00 0.00 0.00 0.00 0.00 0.00 0.00 0.00 0.00 0.00 0.00 0.00 0.00 0.00 0.00 0.00 0.00 0.00 0.00 0.00 0.00 0.00 0.00 0.00 0.00 0.00 0.00 0.00 0.00 0.00
0.00 0.00 0.00 0.00 0.00 0.00 0.00 0.00 0.00 0.00 0.00 0.00 0.00 0.00 0.00 0.00 0.00 0.00 0.00 0.00 0.00 0.00 0.00 0.00 0.00 0.00 0.00 0.00 0.00 0.00 0.00 0.00 0.00 0.00 0.00 0.00 0.00 0.00 0.00 0.00 0.00 0.00 0.00 0.00 0.00 0.00 0.00 0.00 0.00 0.00 0.00 0.00 0.00 0.00 0.00 0.00 0.00 0.00 0.00 0.00 0.00 0.00 0.00 0.00 0.00 0.00 0.00 0.00 0.00
0.00 0.00 0.00 0.00 0.00 0.00 0.00 0.00 0.00 0.00 0.00 0.00 0.00 0.00 0.00 0.00 0.00 0.00 0.00 0.00 0.00 0.00 0.00 0.00 0.00 0.00 0.00 0.00 0.00 0.00 0.00 0.00 0.00 0.00 0.00 0.00 0.00 0.00 0.00 0.00 0.00 0.00 0.00 0.00 0.00 0.00 0.00 0.00 0.00 0.00 0.00 0.00 0.00 0.00 0.00 0.00 0.00 0.00 0.00 0.00 0.00 0.00 0.00 0.00 0.00 0.01 0.01 0.01 0.01
0.00 0.00 0.00 0.00 0.00 0.00 0.00 0.00 0.00 0.00 0.00 0.00 0.00 0.00 0.00 0.00 0.00 0.00 0.00 0.00 0.00 0.00 0.00 0.00 0.00 0.00 0.00 0.00 0.00 0.00 0.00 0.00 0.00 0.00 0.00 0.00 0.00 0.00 0.00 0.00 0.00 0.00 0.00 0.00 0.00 0.00 0.00 0.00 0.00 0.00 0.00 0.00 0.00 0.00 0.00 0.00 0.00 0.00 0.00 0.00 0.00 0.00 0.00 0.00 0.00 0.00 0.01 0.01 0.01
0.00 0.00 0.00 0.00 0.00 0.00 0.00 0.00 0.00 0.00 0.00 0.00 0.00 0.00 0.00 0.00 0.00 0.00 0.00 0.00 0.00 0.00 0.00 0.00 0.00 0.00 0.00 0.00 0.00 0.00 0.00 0.00 0.00 0.00 0.00 0.00 0.00 0.00 0.00 0.00 0.00 0.00 0.00 0.00 0.00 0.00 0.00 0.00 0.00 0.00 0.00 0.00 0.00 0.00 0.00 0.00 0.00 0.00 0.00 0.00 0.00 0.00 0.00 0.00 0.01 0.01 0.01 0.01 0.01
0.00 0.00 0.00 0.00 0.00 0.00 0.00 0.00 0.00 0.00 0.00 0.00 0.00 0.00 0.00 0.00 0.00 0.00 0.00 0.00 0.00 0.00 0.00 0.00 0.00 0.00 0.00 0.00 0.00 0.00 0.00 0.00 0.00 0.00 0.00 0.00 0.00 0.00 0.00 0.00 0.00 0.00 0.00 0.00 0.00 0.00 0.00 0.00 0.00 0.00 0.00 0.00 0.00 0.00 0.00 0.00 0.00 0.00 0.00 0.00 0.00 0.00 0.00 0.00 0.00 0.00 0.00 0.01 0.01
0.00 0.00 0.00 0.00 0.00 0.00 0.00 0.00 0.00 0.00 0.00 0.00 0.00 0.00 0.00 0.00 0.00 0.00 0.00 0.00 0.00 0.00 0.00 0.00 0.00 0.00 0.00 0.00 0.00 0.00 0.00 0.00 0.00 0.00 0.00 0.00 0.00 0.00 0.00 0.00 0.00 0.00 0.00 0.00 0.00 0.00 0.00 0.00 0.00 0.00 0.00 0.00 0.00 0.00 0.00 0.00 0.00 0.00 0.00 0.00 0.00 0.00 0.00 0.00 0.00 0.00 0.00 0.01 0.01
0.00 0.00 0.00 0.00 0.00 0.00 0.00 0.00 0.00 0.00 0.00 0.00 0.00 0.00 0.00 0.00 0.00 0.00 0.00 0.00 0.00 0.00 0.00 0.00 0.00 0.00 0.00 0.00 0.00 0.00 0.00 0.00 0.00 0.00 0.00 0.00 0.00 0.00 0.00 0.00 0.00 0.00 0.00 0.00 0.00 0.00 0.00 0.00 0.00 0.00 0.00 0.00 0.00 0.00 0.00 0.00 0.00 0.00 0.00 0.00 0.00 0.00 0.00 0.00 0.00 0.00 0.00 0.01 0.00
0.00 0.00 0.00 0.00 0.00 0.00 0.00 0.00 0.00 0.00 0.00 0.00 0.00 0.00 0.00 0.00 0.00 0.00 0.00 0.00 0.00 0.00 0.00 0.00 0.00 0.00 0.00 0.00 0.00 0.00 0.00 0.00 0.00 0.00 0.00 0.00 0.00 0.00 0.00 0.00 0.00 0.00 0.00 0.00 0.00 0.00 0.00 0.00 0.00 0.00 0.00 0.00 0.00 0.00 0.00 0.00 0.00 0.00 0.00 0.00 0.00 0.00 0.00 0.00 0.00 0.00 0.00 0.00 0.00
0.00 0.00 0.00 0.00 0.00 0.00 0.00 0.00 0.00 0.00 0.00 0.00 0.00 0.00 0.00 0.00 0.00 0.00 0.00 0.00 0.00 0.00 0.00 0.00 0.00 0.00 0.00 0.00 0.00 0.00 0.00 0.00 0.00 0.00 0.00 0.00 0.00 0.00 0.00 0.00 0.00 0.00 0.00 0.00 0.00 0.00 0.00 0.00 0.00 0.00 0.00 0.00 0.00 0.00 0.00 0.00 0.00 0.00 0.00 0.00 0.00 0.00 0.00 0.00 0.00 0.00 0.00 0.00 0.00
0.00 0.00 0.00 0.00 0.00 0.00 0.00 0.00 0.00 0.00 0.00 0.00 0.00 0.00 0.00 0.00 0.00 0.00 0.00 0.00 0.00 0.00 0.00 0.00 0.00 0.00 0.00 0.00 0.00 0.00 0.00 0.00 0.00 0.00 0.00 0.00 0.00 0.00 0.00 0.00 0.00 0.00 0.00 0.00 0.00 0.00 0.00 0.00 0.00 0.00 0.00 0.00 0.00 0.00 0.00 0.00 0.00 0.00 0.00 0.00 0.00 0.00 0.00 0.00 0.00 0.00 0.00 0.00 0.01
0.00 0.00 0.00 0.00 0.00 0.00 0.00 0.00 0.00 0.00 0.00 0.00 0.00 0.00 0.00 0.00 0.00 0.00 0.00 0.00 0.00 0.00 0.00 0.00 0.00 0.00 0.00 0.00 0.00 0.00 0.00 0.00 0.00 0.00 0.00 0.00 0.00 0.00 0.00 0.00 0.00 0.00 0.00 0.00 0.00 0.00 0.00 0.00 0.00 0.00 0.00 0.00 0.00 0.00 0.00 0.00 0.00 0.00 0.00 0.00 0.00 0.00 0.01 0.01 0.00 0.01 0.01 0.01 0.01
MSLP
1009.92 1010.10 1010.30 1010.54 1010.82 1011.14 1011.42 1011.60 1011.76 1011.96 1012.08 1012.14 1012.24 1012.32 1012.38 1012.48 1012.60 1012.76 1012.88 1013.02 1013.14 1013.30 1013.38 1013.52 1013.64 1013.64 1013.64 1013.64 1013.70 1013.74 1013.82 1013.92 1014.02 1014.10 1014.14 1014.14 1014.14 1014.10 1014.08 1014.02 1013.98 1013.98 1014.02 1014.02 1014.04 1014.10 1014.14 1014.18 1014.20 1014.24 1014.26 1014.30 1014.32 1014.36 1014.36 1014.38 1014.48 1014.58 1014.64 1014.68 1014.60 1014.54 1014.48 1014.46 1014.36 1014.30 1014.24 1014.18 1014.04
1010.24 1010.32 1010.52 1010.76 1011.04 1011.36 1011.60 1011.80 1011.98 1012.18 1012.30 1012.38 1012.52 1012.64 1012.76 1012.92 1013.10 1013.30 1013.42 1013.48 1013.52 1013.58 1013.64 1013.74 1013.80 1013.82 1013.80 1013.82 1013.88 1013.92 1013.98 1014.08 1014.18 1014.24 1014.26 1014.30 1014.30 1014.30 1014.26 1014.20 1014.18 1014.14 1014.10 1014.08 1014.08 1014.10 1014.14 1014.18 1014.24 1014.26 1014.32 1014.38 1014.46 1014.46 1014.48 1014.52 1014.58 1014.60 1014.68 1014.68 1014.60 1014.54 1014.48 1014.38 1014.26 1014.18 1014.08 1013.96 1013.86
1010.82 1010.92 1011.08 1011.30 1011.58 1011.88 1012.18 1012.42 1012.58 1012.68 1012.74 1012.82 1012.98 1013.14 1013.32 1013.48 1013.64 1013.76 1013.86 1013.92 1013.92 1013.92 1013.96 1014.02 1014.08 1014.10 1014.10 1014.14 1014.14 1014.18 1014.20 1014.30 1014.36 1014.38 1014.42 1014.46 1014.46 1014.48 1014.48 1014.42 1014.36 1014.26 1014.20 1014.18 1014.14 1014.14 1014.14 1014.20 1014.26 1014.30 1014.36 1014.46 1014.52 1014.58 1014.60 1014.60 1014.64 1014.68 1014.64 1014.60 1014.54 1014.52 1014.46 1014.32 1014.20 1014.08 1013.96 1013.82 1013.68
1011.42 1011.54 1011.70 1011.96 1012.20 1012.42 1012.68 1012.92 1013.04 1013.10 1013.20 1013.36 1013.54 1013.74 1013.88 1013.98 1014.04 1014.10 1014.14 1014.18 1014.20 1014.24 1014.26 1014.32 1014.30 1014.30 1014.30 1014.32 1014.32 1014.36 1014.38 1014.42 1014.48 1014.52 1014.54 1014.58 1014.60 1014.60 1014.60 1014.54 1014.48 1014.42 1014.38 1014.32 1014.30 1014.24 1014.20 1014.20 1014.26 1014.32 1014.36 1014.46 1014.48 1014.54 1014.60 1014.68 1014.68 1014.64 1014.58 1014.52 1014.46 1014.38 1014.32 1014.26 1014.14 1014.02 1013.86 1013.74 1013.58
1011.92 1012.04 1012.24 1012.46 1012.70 1012.88 1013.08 1013.20 1013.32 1013.48 1013.68 1013.80 1013.96 1014.08 1014.18 1014.20 1014.24 1014.26 1014.30 1014.30 1014.42 1014.52 1014.52 1014.48 1014.48 1014.48 1014.48 1014.48 1014.52 1014.54 1014.60 1014.64 1014.70 1014.76 1014.82 1014.86 1014.86 1014.80 1014.76 1014.70 1014.70 1014.68 1014.64 1014.58 1014.54 1014.48 1014.46 1014.36 1014.32 1014.30 1014.30 1014.36 1014.46 1014.52 1014.54 1014.58 1014.58 1014.52 1014.46 1014.38 1014.30 1014.24 1014.18 1014.10 1014.02 1013.88 1013.76 1013.68 1013.52
1012.30 1012.42 1012.60 1012.82 1012.98 1013.18 1013.32 1013.52 1013.68 1013.86 1014.02 1014.14 1014.24 1014.32 1014.38 1014.42 1014.42 1014.46 1014.48 1014.54 1014.60 1014.64 1014.60 1014.60 1014.64 1014.70 1014.74 1014.76 1014.80 1014.86 1014.92 1015.02 1015.04 1015.10 1015.14 1015.14 1015.10 1015.08 1015.02 1014.98 1014.92 1014.88 1014.86 1014.82 1014.80 1014.76 1014.70 1014.60 1014.48 1014.38 1014.32 1014.32 1014.36 1014.38 1014.42 1014.48 1014.46 1014.42 1014.36 1014.26 1014.18 1014.10 1014.04 1013.98 1013.88 1013.80 1013.70 1013.60 1013.52
1012.60 1012.74 1012.92 1013.14 1013.30 1013.46 1013.64 1013.86 1014.02 1014.20 1014.32 1014.42 1014.52 1014.58 1014.60 1014.60 1014.60 1014.60 1014.64 1014.68 1014.70 1014.74 1014.76 1014.82 1014.92 1014.98 1014.98 1015.04 1015.10 1015.18 1015.20 1015.26 1015.30 1015.32 1015.32 1015.36 1015.30 1015.26 1015.20 1015.18 1015.10 1015.08 1015.02 1014.98 1014.92 1014.88 1014.82 1014.76 1014.64 1014.54 1014.46 1014.42 1014.36 1014.32 1014.32 1014.32 1014.32 1014.30 1014.24 1014.10 1014.04 1013.98 1013.88 1013.80 1013.70 1013.64 1013.58 1013.52 1013.46
1012.92 1013.08 1013.30 1013.48 1013.64 1013.80 1013.96 1014.10 1014.26 1014.38 1014.52 1014.64 1014.74 1014.80 1014.82 1014.82 1014.82 1014.86 1014.86 1014.88 1014.98 1015.08 1015.14 1015.18 1015.26 1015.26 1015.26 1015.26 1015.32 1015.38 1015.42 1015.46 1015.48 1015.48 1015.52 1015.52 1015.46 1015.42 1015.36 1015.32 1015.26 1015.24 1015.18 1015.14 1015.08 1015.04 1014.98 1014.88 1014.82 1014.74 1014.64 1014.58 1014.46 1014.36 1014.26 1014.26 1014.20 1014.14 1014.04 1013.92 1013.86 1013.76 1013.70 1013.64 1013.58 1013.54 1013.52 1013.46 1013.42
1013.30 1013.48 1013.64 1013.80 1013.92 1014.08 1014.20 1014.32 1014.42 1014.54 1014.70 1014.82 1014.96 1015.02 1015.04 1015.08 1015.08 1015.08 1015.14 1015.24 1015.32 1015.38 1015.42 1015.42 1015.46 1015.46 1015.42 1015.46 1015.48 1015.52 1015.54 1015.58 1015.60 1015.60 1015.60 1015.58 1015.54 1015.54 1015.52 1015.46 1015.42 1015.36 1015.30 1015.24 1015.20 1015.18 1015.10 1015.04 1014.96 1014.88 1014.82 1014.74 1014.68 1014.58 1014.46 1014.32 1014.24 1014.10 1013.98 1013.82 1013.70 1013.64 1013.58 1013.52 1013.48 1013.46 1013.42 1013.38 1013.38
1013.70 1013.82 1013.92 1014.04 1014.24 1014.30 1014.38 1014.52 1014.64 1014.74 1014.88 1015.08 1015.18 1015.26 1015.30 1015.30 1015.32 1015.36 1015.46 1015.54 1015.54 1015.54 1015.58 1015.64 1015.64 1015.60 1015.60 1015.64 1015.68 1015.70 1015.74 1015.76 1015.76 1015.76 1015.74 1015.74 1015.70 1015.68 1015.64 1015.60 1015.54 1015.48 1015.46 1015.38 1015.32 1015.30 1015.26 1015.18 1015.14 1015.10 1015.04 1014.98 1014.88 1014.76 1014.64 1014.58 1014.48 1014.36 1014.18 1013.96 1013.80 1013.68 1013.58 1013.48 1013.46 1013.38 1013.36 1013.30 1013.26
1014.02 1014.14 1014.24 1014.32 1014.48 1014.52 1014.54 1014.68 1014.82 1014.98 1015.10 1015.26 1015.38 1015.46 1015.48 1015.52 1015.60 1015.68 1015.70 1015.74 1015.70 1015.74 1015.82 1015.86 1015.86 1015.86 1015.88 1015.88 1015.96 1015.98 1015.98 1015.98 1015.98 1015.98 1015.98 1015.98 1015.96 1015.88 1015.86 1015.80 1015.76 1015.68 1015.60 1015.58 1015.48 1015.42 1015.38 1015.36 1015.30 1015.26 1015.20 1015.10 1015.04 1014.92 1014.80 1014.70 1014.60 1014.52 1014.32 1014.14 1013.96 1013.82 1013.68 1013.52 1013.46 1013.38 1013.32 1013.24 1013.20
1014.30 1014.42 1014.52 1014.60 1014.70 1014.74 1014.80 1014.92 1015.10 1015.26 1015.42 1015.54 1015.64 1015.68 1015.74 1015.82 1015.88 1015.92 1015.88 1015.88 1015.88 1015.98 1016.04 1016.10 1016.10 1016.14 1016.18 1016.20 1016.24 1016.24 1016.24 1016.26 1016.26 1016.26 1016.24 1016.20 1016.20 1016.14 1016.08 1016.02 1015.96 1015.86 1015.80 1015.74 1015.68 1015.58 1015.52 1015.52 1015.46 1015.38 1015.30 1015.20 1015.14 1015.04 1014.92 1014.80 1014.70 1014.58 1014.38 1014.24 1014.10 1013.96 1013.80 1013.60 1013.52 1013.42 1013.32 1013.24 1013.14
1014.60 1014.70 1014.82 1014.92 1014.98 1015.02 1015.10 1015.26 1015.42 1015.58 1015.74 1015.80 1015.86 1015.96 1016.02 1016.08 1016.14 1016.14 1016.14 1016.14 1016.20 1016.26 1016.32 1016.36 1016.38 1016.42 1016.46 1016.48 1016.48 1016.48 1016.48 1016.46 1016.46 1016.42 1016.42 1016.38 1016.32 1016.26 1016.20 1016.10 1016.04 1015.98 1015.92 1015.82 1015.76 1015.70 1015.64 1015.58 1015.52 1015.46 1015.36 1015.30 1015.20 1015.08 1014.98 1014.86 1014.74 1014.60 1014.48 1014.32 1014.18 1014.04 1013.86 1013.70 1013.54 1013.42 1013.30 1013.20 1013.10
1015.02 1015.10 1015.20 1015.30 1015.32 1015.36 1015.46 1015.60 1015.80 1015.96 1016.08 1016.14 1016.20 1016.26 1016.32 1016.36 1016.38 1016.42 1016.42 1016.48 1016.54 1016.58 1016.60 1016.60 1016.60 1016.60 1016.64 1016.68 1016.64 1016.64 1016.60 1016.58 1016.54 1016.52 1016.46 1016.38 1016.32 1016.30 1016.24 1016.18 1016.10 1016.02 1015.96 1015.86 1015.82 1015.76 1015.68 1015.60 1015.54 1015.46 1015.36 1015.26 1015.18 1015.04 1014.96 1014.86 1014.76 1014.64 1014.52 1014.36 1014.20 1014.08 1013.92 1013.76 1013.60 1013.46 1013.30 1013.18 1013.04
1015.46 1015.54 1015.64 1015.68 1015.70 1015.74 1015.82 1015.98 1016.14 1016.30 1016.38 1016.48 1016.54 1016.58 1016.60 1016.64 1016.68 1016.70 1016.74 1016.74 1016.76 1016.80 1016.80 1016.76 1016.76 1016.76 1016.74 1016.74 1016.70 1016.68 1016.64 1016.58 1016.52 1016.48 1016.42 1016.36 1016.30 1016.26 1016.20 1016.14 1016.08 1015.98 1015.92 1015.86 1015.80 1015.74 1015.68 1015.60 1015.52 1015.42 1015.32 1015.24 1015.10 1014.98 1014.88 1014.82 1014.70 1014.58 1014.48 1014.38 1014.24 1014.10 1013.96 1013.80 1013.64 1013.48 1013.32 1013.18 1013.02
1015.82 1015.92 1015.98 1016.02 1016.04 1016.08 1016.18 1016.30 1016.46 1016.58 1016.68 1016.76 1016.80 1016.82 1016.82 1016.86 1016.88 1016.86 1016.86 1016.88 1016.86 1016.86 1016.82 1016.80 1016.76 1016.74 1016.70 1016.64 1016.60 1016.58 1016.52 1016.46 1016.38 1016.36 1016.32 1016.30 1016.24 1016.18 1016.14 1016.08 1015.98 1015.92 1015.86 1015.76 1015.70 1015.60 1015.58 1015.52 1015.42 1015.32 1015.24 1015.14 1015.02 1014.88 1014.80 1014.70 1014.60 1014.52 1014.38 1014.30 1014.20 1014.08 1013.98 1013.82 1013.68 1013.52 1013.36 1013.20 1013.04
1016.04 1016.14 1016.20 1016.24 1016.26 1016.32 1016.42 1016.52 1016.64 1016.74 1016.82 1016.88 1016.92 1016.96 1016.96 1016.96 1016.96 1016.92 1016.88 1016.92 1016.88 1016.86 1016.82 1016.80 1016.74 1016.70 1016.64 1016.58 1016.54 1016.48 1016.42 1016.38 1016.32 1016.30 1016.26 1016.24 1016.20 1016.14 1016.08 1016.02 1015.92 1015.86 1015.76 1015.68 1015.58 1015.52 1015.42 1015.36 1015.26 1015.20 1015.10 1015.02 1014.88 1014.76 1014.68 1014.54 1014.46 1014.36 1014.26 1014.18 1014.08 1013.98 1013.88 1013.80 1013.68 1013.54 1013.38 1013.24 1013.04
1016.14 1016.24 1016.30 1016.32 1016.36 1016.46 1016.54 1016.64 1016.74 1016.80 1016.86 1016.92 1016.96 1016.98 1016.98 1016.98 1016.98 1016.96 1016.92 1016.92 1016.88 1016.88 1016.86 1016.86 1016.80 1016.74 1016.68 1016.64 1016.60 1016.52 1016.46 1016.42 1016.42 1016.38 1016.36 1016.30 1016.24 1016.18 1016.08 1015.98 1015.88 1015.80 1015.68 1015.58 1015.52 1015.42 1015.30 1015.20 1015.10 1015.02 1014.92 1014.82 1014.74 1014.60 1014.52 1014.38 1014.30 1014.20 1014.10 1014.02 1013.96 1013.88 1013.80 1013.74 1013.64 1013.52 1013.38 1013.24 1013.08
1016.20 1016.30 1016.36 1016.42 1016.46 1016.54 1016.60 1016.68 1016.76 1016.82 1016.88 1016.98 1016.98 1017.02 1017.02 1017.02 1017.02 1017.02 1016.98 1016.96 1016.96 1016.92 1016.92 1016.92 1016.86 1016.80 1016.76 1016.74 1016.70 1016.60 1016.54 1016.48 1016.48 1016.46 1016.38 1016.30 1016.24 1016.14 1016.04 1015.96 1015.86 1015.74 1015.64 1015.52 1015.42 1015.32 1015.20 1015.08 1014.96 1014.86 1014.80 1014.68 1014.58 1014.46 1014.38 1014.30 1014.20 1014.10 1014.02 1013.96 1013.86 1013.80 1013.70 1013.64 1013.54 1013.46 1013.32 1013.20 1013.04
1016.32 1016.42 1016.52 1016.58 1016.60 1016.68 1016.74 1016.80 1016.88 1016.96 1016.98 1017.02 1017.04 1017.04 1017.08 1017.08 1017.04 1017.04 1017.04 1017.02 1017.02 1016.98 1016.96 1016.92 1016.86 1016.82 1016.76 1016.74 1016.68 1016.58 1016.54 1016.48 1016.46 1016.36 1016.30 1016.24 1016.14 1016.04 1015.96 1015.86 1015.76 1015.68 1015.58 1015.46 1015.36 1015.24 1015.14 1015.02 1014.88 1014.80 1014.70 1014.60 1014.52 1014.42 1014.32 1014.26 1014.18 1014.08 1014.02 1013.92 1013.82 1013.76 1013.68 1013.58 1013.46 1013.36 1013.26 1013.14 1012.98
1016.60 1016.70 1016.76 1016.82 1016.82 1016.88 1016.96 1016.98 1017.04 1017.08 1017.10 1017.08 1017.10 1017.14 1017.14 1017.10 1017.08 1017.08 1017.08 1017.08 1017.02 1016.96 1016.88 1016.86 1016.82 1016.76 1016.70 1016.64 1016.58 1016.52 1016.48 1016.42 1016.36 1016.30 1016.24 1016.14 1016.04 1015.98 1015.92 1015.82 1015.74 1015.60 1015.52 1015.42 1015.32 1015.20 1015.10 1015.02 1014.88 1014.80 1014.70 1014.60 1014.54 1014.48 1014.38 1014.26 1014.18 1014.10 1014.02 1013.92 1013.82 1013.74 1013.64 1013.52 1013.42 1013.30 1013.18 1013.08 1012.96
1016.96 1016.98 1017.02 1017.04 1017.08 1017.10 1017.14 1017.18 1017.18 1017.20 1017.20 1017.20 1017.18 1017.18 1017.18 1017.10 1017.10 1017.10 1017.08 1017.04 1016.98 1016.88 1016.82 1016.82 1016.80 1016.74 1016.70 1016.64 1016.58 1016.52 1016.42 1016.32 1016.32 1016.26 1016.24 1016.18 1016.08 1016.02 1015.96 1015.88 1015.80 1015.68 1015.58 1015.48 1015.36 1015.24 1015.10 1015.02 1014.88 1014.82 1014.74 1014.64 1014.58 1014.52 1014.42 1014.30 1014.20 1014.10 1014.02 1013.88 1013.76 1013.68 1013.58 1013.46 1013.36 1013.24 1013.14 1013.02 1012.92
1017.24 1017.26 1017.26 1017.26 1017.30 1017.30 1017.30 1017.32 1017.30 1017.30 1017.26 1017.24 1017.24 1017.24 1017.20 1017.18 1017.18 1017.10 1017.04 1017.02 1016.96 1016.92 1016.88 1016.88 1016.82 1016.80 1016.76 1016.74 1016.68 1016.60 1016.52 1016.42 1016.36 1016.32 1016.30 1016.30 1016.20 1016.14 1016.08 1015.98 1015.92 1015.82 1015.70 1015.60 1015.48 1015.32 1015.18 1015.02 1014.92 1014.82 1014.76 1014.68 1014.58 1014.52 1014.42 1014.30 1014.20 1014.08 1013.96 1013.80 1013.70 1013.58 1013.46 1013.36 1013.26 1013.18 1013.04 1012.92 1012.82
1017.38 1017.38 1017.38 1017.36 1017.38 1017.38 1017.38 1017.36 1017.32 1017.30 1017.26 1017.30 1017.30 1017.26 1017.24 1017.20 1017.18 1017.14 1017.08 1017.08 1017.04 1017.02 1017.02 1017.02 1016.96 1016.92 1016.88 1016.86 1016.80 1016.76 1016.74 1016.64 1016.54 1016.48 1016.42 1016.36 1016.30 1016.24 1016.18 1016.10 1016.02 1015.92 1015.82 1015.70 1015.54 1015.42 1015.26 1015.08 1014.92 1014.80 1014.70 1014.64 1014.54 1014.46 1014.36 1014.26 1014.18 1014.04 1013.88 1013.74 1013.60 1013.46 1013.32 1013.20 1013.10 1013.04 1012.92 1012.82 1012.74
1017.46 1017.42 1017.42 1017.42 1017.42 1017.38 1017.36 1017.32 1017.36 1017.36 1017.38 1017.42 1017.38 1017.36 1017.32 1017.32 1017.32 1017.30 1017.26 1017.24 1017.24 1017.20 1017.18 1017.18 1017.10 1017.04 1016.98 1016.96 1016.92 1016.88 1016.86 1016.82 1016.76 1016.70 1016.58 1016.48 1016.42 1016.36 1016.26 1016.18 1016.08 1015.98 1015.86 1015.70 1015.52 1015.32 1015.20 1015.08 1014.96 1014.80 1014.68 1014.58 1014.48 1014.38 1014.26 1014.14 1014.08 1013.96 1013.82 1013.70 1013.54 1013.36 1013.20 1013.08 1012.96 1012.88 1012.80 1012.70 1012.60
1017.46 1017.46 1017.46 1017.48 1017.46 1017.46 1017.46 1017.48 1017.54 1017.58 1017.58 1017.58 1017.58 1017.54 1017.54 1017.52 1017.52 1017.48 1017.48 1017.48 1017.46 1017.42 1017.36 1017.32 1017.26 1017.20 1017.14 1017.10 1017.04 1017.04 1016.98 1016.92 1016.88 1016.82 1016.74 1016.60 1016.48 1016.38 1016.32 1016.24 1016.14 1016.02 1015.88 1015.70 1015.48 1015.30 1015.14 1015.02 1014.86 1014.76 1014.68 1014.58 1014.42 1014.30 1014.18 1014.08 1013.96 1013.86 1013.76 1013.64 1013.48 1013.36 1013.20 1013.04 1012.86 1012.76 1012.68 1012.60 1012.48
1017.54 1017.58 1017.64 1017.64 1017.64 1017.68 1017.74 1017.80 1017.80 1017.80 1017.80 1017.80 1017.80 1017.80 1017.80 1017.80 1017.74 1017.70 1017.70 1017.70 1017.68 1017.60 1017.54 1017.48 1017.46 1017.36 1017.30 1017.24 1017.20 1017.14 1017.08 1016.98 1016.92 1016.86 1016.80 1016.68 1016.58 1016.46 1016.32 1016.26 1016.14 1016.02 1015.86 1015.68 1015.46 1015.26 1015.10 1014.98 1014.82 1014.70 1014.60 1014.52 1014.38 1014.30 1014.18 1014.04 1013.86 1013.76 1013.68 1013.54 1013.46 1013.32 1013.18 1013.04 1012.88 1012.74 1012.60 1012.48 1012.38
1017.82 1017.88 1017.88 1017.88 1017.92 1018.02 1018.04 1018.02 1018.02 1018.04 1018.08 1018.08 1018.04 1018.04 1018.02 1017.96 1017.92 1017.92 1017.88 1017.86 1017.80 1017.70 1017.64 1017.58 1017.52 1017.46 1017.38 1017.30 1017.30 1017.24 1017.18 1017.04 1016.96 1016.82 1016.76 1016.70 1016.58 1016.46 1016.32 1016.24 1016.10 1015.98 1015.82 1015.64 1015.46 1015.26 1015.10 1014.96 1014.80 1014.68 1014.58 1014.48 1014.38 1014.26 1014.14 1014.02 1013.86 1013.74 1013.58 1013.48 1013.38 1013.26 1013.14 1013.04 1012.88 1012.76 1012.60 1012.46 1012.30
1018.18 1018.18 1018.20 1018.20 1018.26 1018.30 1018.26 1018.26 1018.26 1018.26 1018.30 1018.26 1018.26 1018.20 1018.14 1018.10 1018.08 1018.04 1018.02 1017.96 1017.86 1017.80 1017.74 1017.68 1017.54 1017.46 1017.42 1017.38 1017.30 1017.24 1017.14 1017.04 1016.96 1016.86 1016.76 1016.68 1016.54 1016.46 1016.32 1016.20 1016.08 1015.96 1015.80 1015.60 1015.42 1015.24 1015.08 1014.92 1014.76 1014.60 1014.48 1014.42 1014.32 1014.24 1014.08 1013.98 1013.82 1013.70 1013.54 1013.46 1013.32 1013.20 1013.10 1013.02 1012.86 1012.74 1012.58 1012.42 1012.24
1018.46 1018.46 1018.48 1018.52 1018.52 1018.52 1018.52 1018.52 1018.48 1018.46 1018.42 1018.38 1018.32 1018.30 1018.24 1018.20 1018.14 1018.10 1018.04 1017.98 1017.88 1017.82 1017.76 1017.68 1017.54 1017.52 1017.48 1017.42 1017.30 1017.20 1017.14 1017.04 1016.96 1016.86 1016.80 1016.70 1016.60 1016.46 1016.30 1016.20 1016.08 1015.96 1015.80 1015.60 1015.42 1015.20 1015.04 1014.88 1014.74 1014.58 1014.46 1014.38 1014.30 1014.18 1014.04 1013.88 1013.74 1013.60 1013.48 1013.38 1013.30 1013.18 1013.04 1012.92 1012.76 1012.60 1012.48 1012.32 1012.18
1018.68 1018.68 1018.68 1018.68 1018.70 1018.68 1018.68 1018.64 1018.58 1018.54 1018.52 1018.46 1018.38 1018.36 1018.30 1018.26 1018.20 1018.14 1018.08 1018.02 1017.92 1017.76 1017.68 1017.64 1017.60 1017.58 1017.52 1017.42 1017.32 1017.26 1017.20 1017.08 1016.98 1016.92 1016.86 1016.76 1016.60 1016.48 1016.36 1016.24 1016.14 1015.98 1015.80 1015.60 1015.38 1015.18 1015.02 1014.82 1014.70 1014.54 1014.42 1014.30 1014.20 1014.10 1013.98 1013.80 1013.70 1013.58 1013.46 1013.30 1013.20 1013.08 1012.98 1012.82 1012.70 1012.54 1012.38 1012.24 1012.10
1018.82 1018.82 1018.82 1018.80 1018.82 1018.80 1018.74 1018.70 1018.64 1018.60 1018.54 1018.52 1018.42 1018.38 1018.36 1018.32 1018.24 1018.18 1018.08 1018.02 1017.92 1017.80 1017.70 1017.68 1017.68 1017.60 1017.52 1017.46 1017.36 1017.30 1017.24 1017.14 1017.08 1016.98 1016.88 1016.80 1016.68 1016.54 1016.38 1016.26 1016.18 1016.02 1015.82 1015.54 1015.32 1015.14 1014.96 1014.76 1014.64 1014.48 1014.36 1014.20 1014.08 1013.98 1013.86 1013.74 1013.64 1013.52 1013.38 1013.24 1013.10 1013.02 1012.88 1012.74 1012.58 1012.42 1012.26 1012.14 1012.02
1018.96 1018.92 1018.92 1018.92 1018.88 1018.86 1018.80 1018.74 1018.64 1018.60 1018.54 1018.52 1018.48 1018.48 1018.42 1018.36 1018.30 1018.20 1018.10 1018.04 1017.98 1017.92 1017.88 1017.82 1017.80 1017.74 1017.64 1017.54 1017.42 1017.32 1017.26 1017.20 1017.10 1016.98 1016.88 1016.80 1016.68 1016.54 1016.38 1016.24 1016.14 1015.98 1015.74 1015.48 1015.26 1015.08 1014.86 1014.70 1014.54 1014.38 1014.20 1014.08 1013.96 1013.86 1013.80 1013.68 1013.54 1013.42 1013.26 1013.10 1012.98 1012.88 1012.76 1012.64 1012.48 1012.30 1012.14 1012.02 1011.86
1019.04 1019.02 1018.98 1018.98 1018.92 1018.88 1018.82 1018.76 1018.74 1018.70 1018.68 1018.64 1018.60 1018.58 1018.54 1018.52 1018.42 1018.32 1018.20 1018.10 1018.08 1018.04 1018.02 1017.96 1017.88 1017.82 1017.74 1017.68 1017.54 1017.46 1017.30 1017.18 1017.08 1016.98 1016.88 1016.76 1016.68 1016.52 1016.36 1016.20 1016.08 1015.88 1015.68 1015.42 1015.20 1014.98 1014.80 1014.60 1014.46 1014.26 1014.10 1013.96 1013.82 1013.74 1013.68 1013.54 1013.38 1013.24 1013.10 1012.92 1012.76 1012.64 1012.54 1012.38 1012.26 1012.10 1011.96 1011.80 1011.64
1019.14 1019.10 1019.08 1019.04 1019.02 1018.98 1018.96 1018.92 1018.86 1018.86 1018.86 1018.82 1018.80 1018.74 1018.68 1018.68 1018.58 1018.48 1018.36 1018.20 1018.14 1018.14 1018.10 1018.04 1017.98 1017.88 1017.80 1017.68 1017.58 1017.48 1017.32 1017.18 1017.04 1016.96 1016.86 1016.70 1016.58 1016.42 1016.26 1016.10 1015.92 1015.76 1015.54 1015.32 1015.08 1014.88 1014.70 1014.52 1014.32 1014.14 1013.98 1013.82 1013.74 1013.64 1013.52 1013.36 1013.20 1013.04 1012.86 1012.70 1012.54 1012.38 1012.30 1012.18 1012.02 1011.86 1011.70 1011.54 1011.42
1019.26 1019.26 1019.24 1019.20 1019.18 1019.14 1019.10 1019.08 1019.08 1019.08 1019.04 1019.04 1019.02 1018.92 1018.82 1018.80 1018.68 1018.58 1018.46 1018.30 1018.24 1018.20 1018.18 1018.08 1018.02 1017.92 1017.80 1017.68 1017.54 1017.42 1017.30 1017.14 1017.02 1016.86 1016.74 1016.58 1016.48 1016.30 1016.14 1015.96 1015.76 1015.58 1015.38 1015.20 1014.98 1014.76 1014.54 1014.38 1014.20 1013.98 1013.82 1013.70 1013.58 1013.48 1013.32 1013.18 1013.02 1012.82 1012.68 1012.52 1012.36 1012.20 1012.08 1011.96 1011.80 1011.60 1011.46 1011.32 1011.20
1019.38 1019.38 1019.38 1019.38 1019.36 1019.32 1019.30 1019.26 1019.26 1019.26 1019.24 1019.20 1019.14 1019.04 1018.96 1018.82 1018.70 1018.60 1018.48 1018.32 1018.32 1018.26 1018.18 1018.08 1017.98 1017.88 1017.76 1017.64 1017.48 1017.36 1017.20 1017.08 1016.96 1016.76 1016.60 1016.48 1016.32 1016.18 1015.98 1015.80 1015.64 1015.46 1015.30 1015.08 1014.86 1014.64 1014.46 1014.26 1014.08 1013.88 1013.74 1013.60 1013.46 1013.30 1013.14 1012.98 1012.82 1012.64 1012.46 1012.32 1012.18 1012.04 1011.88 1011.76 1011.60 1011.42 1011.26 1011.10 1010.96
1019.52 1019.52 1019.52 1019.52 1019.48 1019.46 1019.46 1019.42 1019.42 1019.38 1019.36 1019.26 1019.18 1019.08 1018.96 1018.80 1018.70 1018.60 1018.46 1018.30 1018.30 1018.26 1018.18 1018.04 1017.96 1017.82 1017.68 1017.52 1017.36 1017.20 1017.04 1016.96 1016.82 1016.68 1016.52 1016.38 1016.24 1016.08 1015.88 1015.64 1015.46 1015.32 1015.18 1014.96 1014.74 1014.52 1014.32 1014.14 1013.96 1013.80 1013.64 1013.52 1013.32 1013.18 1012.98 1012.82 1012.68 1012.48 1012.32 1012.18 1011.98 1011.82 1011.70 1011.60 1011.42 1011.24 1011.04 1010.88 1010.76
1019.60 1019.58 1019.60 1019.60 1019.60 1019.58 1019.54 1019.54 1019.52 1019.46 1019.32 1019.24 1019.10 1019.02 1018.88 1018.76 1018.64 1018.52 1018.38 1018.26 1018.24 1018.20 1018.14 1018.02 1017.86 1017.70 1017.54 1017.38 1017.24 1017.04 1016.92 1016.80 1016.68 1016.54 1016.38 1016.26 1016.08 1015.88 1015.70 1015.52 1015.30 1015.14 1015.02 1014.82 1014.60 1014.42 1014.20 1014.02 1013.86 1013.68 1013.52 1013.38 1013.20 1013.02 1012.86 1012.70 1012.52 1012.32 1012.20 1012.04 1011.82 1011.64 1011.48 1011.36 1011.24 1011.04 1010.82 1010.64 1010.52
1019.68 1019.64 1019.68 1019.68 1019.64 1019.60 1019.60 1019.54 1019.52 1019.38 1019.26 1019.18 1019.08 1018.96 1018.82 1018.70 1018.52 1018.38 1018.30 1018.20 1018.18 1018.10 1017.98 1017.86 1017.74 1017.58 1017.38 1017.24 1017.08 1016.92 1016.74 1016.58 1016.48 1016.36 1016.20 1016.08 1015.88 1015.68 1015.48 1015.36 1015.18 1015.02 1014.86 1014.68 1014.48 1014.30 1014.08 1013.88 1013.70 1013.54 1013.36 1013.20 1013.08 1012.88 1012.74 1012.58 1012.36 1012.18 1012.02 1011.86 1011.70 1011.48 1011.26 1011.10 1011.02 1010.86 1010.64 1010.42 1010.26
1019.70 1019.70 1019.70 1019.68 1019.64 1019.60 1019.58 1019.52 1019.42 1019.30 1019.18 1019.08 1018.98 1018.82 1018.68 1018.48 1018.38 1018.30 1018.20 1018.14 1018.04 1017.96 1017.82 1017.70 1017.54 1017.38 1017.24 1017.08 1016.92 1016.76 1016.58 1016.38 1016.24 1016.14 1015.98 1015.82 1015.68 1015.52 1015.36 1015.20 1015.02 1014.82 1014.68 1014.52 1014.32 1014.10 1013.88 1013.70 1013.52 1013.36 1013.20 1013.04 1012.88 1012.74 1012.60 1012.46 1012.24 1012.02 1011.82 1011.68 1011.52 1011.32 1011.10 1010.88 1010.70 1010.58 1010.46 1010.26 1010.10
Thickness
5619 5619 5619 5619 5617 5617 5616 5616 5616 5615 5614 5614 5613 5612 5612 5612 5611 5610 5609 5607 5606 5605 5604 5602 5601 5600 5599 5598 5598 5597 5596 5595 5594 5593 5593 5592 5592 5592 5592 5593 5592 5592 5592 5592 5592 5591 5591 5590 5590 5589 5588 5588 5587 5587 5586 5586 5584 5583 5582 5581 5581 5581 5581 5581 5582 5582 5582 5582 5583
5613 5614 5614 5613 5613 5612 5611 5610 5610 5608 5607 5606 5606 5605 5605 5605 5603 5602 5601 5600 5599 5598 5596 5595 5594 5594 5594 5594 5594 5593 5592 5591 5591 5589 5589 5588 5588 5588 5588 5588 5588 5589 5589 5589 5588 5588 5588 5587 5587 5586 5585 5584 5583 5583 5582 5582 5581 5580 5579 5578 5578 5579 5579 5579 5580 5580 5581 5582 5582
5605 5605 5605 5604 5604 5602 5601 5600 5600 5600 5599 5599 5598 5598 5597 5597 5596 5595 5593 5592 5591 5591 5590 5590 5589 5589 5589 5589 5588 5588 5588 5587 5586 5586 5585 5585 5584 5584 5584 5585 5585 5585 5585 5585 5586 5586 5585 5584 5584 5583 5582 5582 5580 5580 5579 5578 5578 5577 5577 5576 5576 5576 5576 5577 5577 5578 5579 5580 5581
5598 5598 5597 5596 5596 5594 5593 5593 5593 5593 5593 5592 5592 5592 5592 5591 5590 5589 5587 5586 5586 5586 5585 5585 5585 5585 5585 5585 5585 5584 5584 5584 5583 5583 5582 5581 5581 5581 5581 5581 5582 5582 5583 5582 5582 5582 5583 5582 5582 5580 5580 5579 5578 5577 5576 5575 5575 5575 5574 5574 5575 5574 5574 5574 5575 5576 5577 5578 5579
5592 5592 5591 5590 5590 5588 5587 5587 5587 5586 5586 5586 5586 5585 5585 5584 5584 5583 5583 5582 5582 5581 5581 5581 5581 5581 5581 5581 5581 5580 5580 5580 5579 5579 5578 5577 5577 5578 5578 5578 5578 5578 5578 5578 5579 5579 5579 5579 5579 5579 5578 5577 5576 5575 5574 5573 5573 5572 5572 5572 5572 5573 5573 5573 5574 5574 5575 5576 5576
5587 5587 5586 5585 5584 5583 5583 5582 5582 5581 5580 5580 5580 5580 5580 5579 5579 5580 5580 5580 5579 5579 5579 5579 5578 5578 5577 5577 5577 5576 5575 5575 5575 5574 5573 5573 5573 5574 5574 5574 5574 5574 5574 5575 5574 5575 5575 5575 5575 5575 5575 5575 5574 5573 5572 5572 5571 5571 5571 5571 5571 5571 5571 5572 5572 5573 5573 5573 5574
5582 5582 5582 5581 5581 5581 5580 5579 5578 5577 5577 5577 5576 5576 5577 5576 5576 5576 5577 5576 5576 5576 5575 5575 5574 5573 5573 5573 5572 5572 5571 5571 5571 5570 5570 5570 5570 5570 5570 5570 5571 5571 5571 5571 5571 5571 5571 5571 5571 5572 5572 5572 5572 5571 5570 5570 5569 5569 5569 5569 5570 5570 5570 5570 5571 5571 5571 5572 5572
5579 5578 5578 5578 5578 5578 5577 5576 5575 5574 5574 5573 5573 5573 5572 5573 5573 5573 5573 5573 5572 5571 5571 5570 5570 5570 5570 5569 5569 5569 5568 5568 5568 5568 5568 5567 5567 5567 5567 5567 5568 5568 5568 5568 5568 5568 5568 5568 5568 5568 5568 5568 5568 5568 5568 5568 5568 5568 5568 5569 5569 5569 5569 5569 5569 5569 5569 5569 5569
5576 5575 5574 5574 5574 5574 5573 5572 5572 5572 5571 5570 5569 5569 5569 5569 5570 5569 5569 5568 5568 5568 5567 5567 5567 5567 5567 5567 5567 5566 5566 5565 5565 5565 5564 5564 5564 5564 5564 5564 5564 5564 5565 5565 5564 5564 5564 5564 5564 5564 5564 5564 5564 5564 5564 5565 5564 5565 5566 5567 5567 5567 5567 5567 5567 5567 5566 5566 5566
5571 5571 5571 5571 5571 5571 5571 5570 5570 5569 5568 5567 5566 5566 5565 5566 5566 5566 5565 5564 5565 5565 5564 5564 5564 5564 5564 5563 5563 5563 5563 5562 5562 5561 5561 5561 5561 5561 5561 5561 5561 5561 5561 5561 5561 5560 5560 5560 5560 5559 5559 5559 5559 5559 5559 5560 5560 5561 5561 5563 5563 5564 5564 5564 5564 5564 5563 5564 5564
5567 5567 5568 5568 5567 5568 5568 5568 5567 5566 5566 5564 5563 5563 5563 5563 5563 5563 5562 5562 5562 5562 5561 5561 5561 5561 5560 5560 5560 5559 5558 5558 5558 5557 5557 5556 5556 5556 5556 5556 5556 5556 5556 5556 5556 5556 5556 5555 5555 5555 5555 5555 5555 5555 5555 5555 5556 5556 5557 5558 5559 5560 5560 5561 5561 5561 5560 5560 5560
5564 5564 5565 5564 5564 5565 5565 5564 5563 5562 5561 5561 5561 5561 5561 5560 5560 5559 5559 5559 5559 5559 5558 5557 5557 5556 5556 5555 5554 5554 5554 5553 5552 5553 5552 5552 5552 5551 5551 5551 5551 5551 5552 5552 5552 5552 5551 5551 5551 5551 5551 5551 5551 5551 5552 5552 5552 5553 5553 5554 5555 5555 5556 5557 5557 5557 5557 5557 5557
5561 5561 5561 5560 5561 5561 5560 5560 5559 5558 5557 5557 5557 5557 5557 5556 5556 5556 5556 5555 5555 5554 5553 5553 5553 5552 5552 5551 5551 5550 5550 5549 5549 5548 5548 5548 5548 5547 5548 5548 5548 5548 5548 5547 5547 5548 5547 5547 5547 5547 5547 5547 5547 5548 5548 5548 5549 5550 5550 5551 5551 5551 5552 5552 5553 5553 5553 5553 5553
5556 5556 5556 5556 5556 5556 5556 5555 5555 5553 5553 5553 5553 5553 5552 5552 5552 5552 5551 5551 5550 5550 5549 5549 5548 5548 5547 5546 5546 5546 5546 5545 5546 5545 5545 5545 5545 5545 5544 5544 5545 5545 5544 5545 5545 5544 5545 5544 5544 5545 5544 5545 5545 5545 5545 5545 5546 5546 5546 5547 5548 5548 5548 5548 5548 5549 5549 5549 5549
5551 5552 5551 5552 5552 5552 5552 5551 5550 5550 5549 5549 5548 5548 5548 5547 5547 5547 5546 5546 5546 5546 5545 5545 5545 5545 5545 5544 5544 5544 5544 5543 5544 5543 5543 5543 5542 5542 5542 5542 5542 5542 5542 5542 5541 5541 5542 5541 5541 5542 5541 5542 5542 5542 5542 5543 5542 5542 5542 5542 5543 5543 5543 5544 5544 5544 5544 5545 5545
5548 5547 5547 5548 5548 5548 5548 5548 5547 5546 5545 5545 5544 5544 5544 5544 5544 5544 5543 5543 5543 5543 5543 5543 5543 5543 5543 5543 5542 5543 5542 5542 5542 5542 5541 5541 5541 5540 5540 5540 5540 5540 5540 5539 5539 5539 5539 5539 5539 5538 5539 5539 5539 5539 5539 5538 5539 5538 5538 5538 5538 5538 5538 5539 5538 5539 5539 5540 5540
5545 5545 5545 5545 5545 5546 5545 5545 5544 5543 5543 5542 5542 5542 5542 5541 5541 5541 5541 5541 5541 5541 5541 5541 5541 5541 5541 5541 5541 5541 5541 5540 5540 5539 5539 5538 5538 5538 5538 5538 5537 5537 5537 5537 5537 5537 5536 5536 5536 5536 5536 5536 5536 5536 5535 5536 5536 5535 5535 5534 5534 5534 5534 5533 5533 5533 5533 5533 5534
5544 5544 5544 5544 5544 5543 5543 5542 5542 5542 5541 5541 5540 5540 5540 5540 5540 5539 5540 5539 5539 5539 5539 5539 5539 5539 5538 5538 5538 5538 5538 5537 5537 5536 5536 5535 5535 5535 5534 5534 5534 5534 5534 5533 5534 5533 5533 5533 5533 5533 5533 5533 5533 5533 5533 5533 5532 5532 5531 5531 5531 5530 5529 5529 5528 5528 5528 5528 5529
5543 5543 5543 5543 5542 5542 5542 5541 5540 5540 5539 5539 5539 5538 5538 5538 5538 5538 5537 5537 5537 5536 5536 5536 5536 5536 5535 5535 5534 5534 5534 5533 5533 5532 5532 5532 5531 5531 5531 5531 5530 5530 5530 5530 5530 5530 5530 5530 5530 5530 5529 5529 5530 5529 5529 5529 5528 5528 5527 5527 5527 5525 5525 5525 5524 5524 5524 5524 5525
5542 5542 5541 5541 5540 5540 5540 5539 5539 5538 5538 5537 5537 5536 5535 5535 5535 5535 5534 5534 5533 5534 5533 5533 5533 5532 5532 5532 5531 5531 5530 5530 5529 5529 5528 5529 5528 5528 5528 5528 5528 5527 5527 5527 5527 5527 5527 5527 5527 5526 5526 5526 5526 5525 5525 5525 5524 5524 5523 5523 5522 5521 5521 5520 5520 5520 5520 5520 5520
5539 5538 5538 5538 5537 5537 5537 5536 5535 5535 5534 5534 5534 5533 5533 5533 5532 5531 5531 5531 5531 5531 5531 5530 5530 5529 5529 5529 5528 5528 5527 5527 5527 5526 5526 5526 5525 5525 5525 5524 5524 5524 5524 5523 5523 5523 5523 5523 5522 5522 5522 5521 5522 5521 5520 5520 5520 5519 5519 5518 5517 5517 5517 5516 5516 5516 5516 5516 5516
5536 5535 5535 5534 5534 5534 5533 5532 5532 5532 5532 5531 5531 5530 5530 5530 5529 5529 5528 5528 5529 5528 5528 5527 5527 5527 5526 5526 5525 5525 5524 5524 5524 5523 5523 5522 5521 5521 5521 5521 5520 5519 5519 5519 5519 5519 5519 5519 5518 5517 5517 5517 5516 5516 5516 5515 5515 5515 5514 5514 5514 5513 5513 5513 5512 5512 5512 5512 5511
5532 5532 5531 5531 5531 5530 5530 5530 5529 5529 5528 5528 5528 5528 5527 5527 5527 5527 5526 5526 5526 5526 5525 5525 5524 5523 5523 5522 5521 5521 5521 5520 5520 5519 5519 5518 5517 5517 5516 5516 5515 5514 5514 5514 5514 5514 5514 5514 5514 5514 5513 5512 5512 5511 5511 5510 5511 5510 5510 5510 5510 5510 5509 5509 5508 5508 5507 5507 5507
5529 5528 5528 5528 5528 5527 5527 5527 5527 5527 5526 5526 5525 5525 5525 5524 5524 5524 5523 5523 5522 5522 5522 5521 5520 5520 5519 5518 5517 5517 5516 5516 5515 5515 5514 5514 5513 5512 5511 5510 5511 5510 5509 5509 5509 5509 5508 5509 5509 5509 5509 5508 5507 5507 5507 5506 5506 5506 5506 5506 5506 5506 5506 5505 5504 5504 5503 5503 5503
5526 5525 5525 5525 5525 5525 5525 5525 5525 5524 5523 5523 5522 5522 5522 5521 5521 5521 5520 5519 5519 5518 5517 5517 5516 5515 5515 5514 5514 5512 5511 5511 5510 5510 5509 5509 5508 5507 5506 5506 5505 5505 5504 5504 5504 5504 5504 5504 5504 5504 5504 5504 5503 5503 5502 5502 5502 5502 5501 5501 5501 5502 5502 5502 5501 5500 5499 5498 5498
5523 5523 5523 5523 5523 5522 5522 5521 5521 5520 5520 5519 5519 5519 5518 5517 5517 5516 5516 5515 5515 5514 5513 5512 5512 5511 5511 5510 5509 5508 5507 5507 5506 5505 5504 5503 5503 5502 5502 5501 5500 5500 5499 5499 5500 5499 5499 5499 5499 5498 5498 5499 5498 5499 5498 5498 5497 5497 5496 5496 5496 5496 5496 5497 5496 5496 5495 5494 5493
5521 5520 5520 5520 5520 5519 5518 5517 5517 5516 5516 5515 5515 5514 5513 5513 5512 5511 5511 5510 5510 5509 5509 5508 5507 5507 5506 5505 5504 5503 5503 5502 5501 5501 5500 5499 5498 5497 5497 5496 5495 5495 5495 5495 5495 5495 5494 5495 5494 5494 5493 5493 5493 5493 5493 5493 5493 5493 5492 5491 5491 5491 5491 5491 5491 5491 5490 5490 5489
5517 5516 5516 5516 5515 5514 5514 5513 5513 5512 5511 5511 5510 5510 5509 5509 5508 5507 5507 5505 5505 5505 5504 5504 5503 5503 5502 5501 5500 5499 5498 5498 5497 5497 5496 5495 5494 5493 5492 5492 5491 5491 5490 5491 5490 5490 5490 5490 5489 5489 5489 5488 5488 5488 5488 5488 5488 5488 5487 5487 5487 5485 5485 5485 5485 5484 5485 5484 5484
5512 5512 5512 5511 5510 5510 5509 5509 5508 5507 5507 5506 5506 5505 5505 5505 5504 5503 5503 5502 5502 5501 5500 5500 5499 5499 5498 5497 5496 5495 5494 5494 5493 5492 5492 5491 5490 5489 5489 5488 5487 5486 5486 5486 5486 5485 5485 5485 5485 5484 5483 5483 5482 5482 5482 5482 5483 5482 5482 5482 5481 5480 5480 5479 5479 5479 5478 5478 5478
5508 5508 5507 5506 5506 5506 5505 5504 5504 5504 5503 5503 5502 5501 5501 5501 5500 5499 5499 5498 5498 5497 5497 5496 5495 5495 5494 5493 5492 5491 5491 5490 5489 5488 5488 5487 5486 5485 5485 5483 5482 5482 5481 5481 5481 5480 5480 5480 5479 5479 5478 5478 5477 5477 5477 5477 5477 5476 5476 5476 5475 5475 5474 5473 5473 5472 5473 5472 5472
5504 5503 5503 5503 5502 5502 5501 5501 5500 5499 5499 5499 5499 5498 5497 5497 5497 5496 5495 5495 5494 5494 5494 5493 5492 5491 5490 5489 5488 5487 5487 5486 5485 5484 5483 5482 5481 5480 5479 5478 5477 5477 5476 5476 5476 5475 5475 5474 5474 5474 5473 5472 5472 5471 5471 5471 5470 5470 5470 5469 5469 5469 5468 5467 5467 5466 5466 5466 5465
5501 5500 5500 5499 5499 5498 5498 5498 5497 5497 5496 5496 5496 5495 5494 5493 5493 5493 5492 5492 5491 5490 5490 5489 5488 5487 5487 5486 5485 5483 5483 5481 5480 5479 5478 5477 5477 5476 5474 5473 5472 5471 5471 5471 5471 5470 5470 5469 5469 5468 5467 5467 5467 5466 5465 5464 5464 5464 5463 5463 5462 5462 5461 5461 5460 5460 5460 5459 5459
5497 5497 5496 5495 5496 5495 5495 5495 5494 5494 5493 5493 5492 5492 5491 5490 5490 5490 5489 5488 5487 5487 5485 5485 5484 5483 5482 5481 5480 5479 5478 5476 5476 5474 5474 5472 5472 5470 5469 5468 5467 5466 5466 5466 5465 5465 5464 5464 5463 5463 5462 5462 5461 5460 5459 5458 5458 5457 5457 5457 5456 5455 5454 5453 5453 5453 5453 5453 5452
5494 5494 5493 5493 5492 5492 5492 5492 5491 5490 5490 5489 5488 5488 5487 5486 5486 5485 5485 5484 5483 5482 5481 5479 5478 5478 5477 5476 5475 5474 5473 5472 5471 5470 5469 5468 5467 5465 5465 5463 5462 5462 5461 5461 5460 5460 5459 5459 5458 5457 5457 5456 5455 5454 5453 5452 5452 5451 5451 5451 5450 5449 5448 5447 5447 5446 5446 5446 5445
5491 5491 5491 5490 5489 5489 5489 5488 5487 5486 5486 5485 5484 5484 5482 5482 5481 5480 5480 5480 5479 5477 5477 5475 5474 5473 5472 5471 5470 5469 5468 5468 5467 5465 5464 5463 5463 5461 5461 5459 5458 5457 5456 5455 5455 5455 5454 5453 5452 5451 5451 5450 5449 5447 5447 5446 5446 5445 5445 5444 5444 5443 5442 5441 5440 5440 5439 5439 5438
5488 5487 5487 5486 5486 5485 5484 5484 5483 5482 5481 5480 5480 5479 5478 5478 5477 5476 5476 5476 5475 5473 5472 5471 5469 5469 5468 5467 5466 5465 5464 5463 5462 5461 5460 5459 5458 5457 5456 5455 5454 5452 5451 5450 5449 5449 5448 5447 5446 5444 5444 5443 5441 5441 5440 5440 5439 5438 5438 5437 5436 5436 5435 5434 5433 5432 5431 5430 5430
5484 5484 5483 5482 5482 5481 5481 5480 5479 5478 5477 5476 5475 5474 5474 5473 5473 5472 5472 5471 5470 5468 5468 5467 5466 5465 5464 5463 5462 5461 5460 5459 5458 5457 5456 5455 5454 5452 5451 5450 5449 5447 5446 5444 5443 5442 5441 5440 5438 5438 5436 5435 5434 5433 5433 5432 5432 5431 5430 5430 5429 5428 5427 5426 5425 5424 5424 5423 5422
5481 5481 5480 5479 5478 5477 5477 5476 5475 5473 5473 5472 5472 5471 5470 5470 5469 5469 5468 5468 5466 5465 5464 5463 5462 5461 5460 5459 5458 5457 5456 5454 5453 5452 5451 5450 5449 5447 5446 5445 5444 5442 5440 5438 5437 5436 5434 5433 5431 5430 5428 5427 5426 5425 5425 5424 5424 5423 5422 5422 5421 5420 5419 5417 5417 5416 5416 5415 5414
5478 5478 5477 5476 5475 5474 5473 5472 5471 5470 5469 5469 5469 5468 5467 5467 5466 5465 5465 5464 5462 5461 5460 5459 5458 5457 5457 5455 5455 5453 5452 5450 5449 5448 5446 5444 5443 5442 5441 5439 5438 5436 5434 5433 5431 5429 5428 5426 5424 5422 5421 5419 5418 5417 5417 5416 5416 5415 5414 5413 5413 5412 5411 5409 5408 5408 5408 5407 5405
5475 5474 5473 5472 5471 5471 5470 5468 5468 5467 5467 5466 5465 5465 5464 5463 5463 5462 5461 5460 5459 5457 5456 5455 5454 5453 5452 5452 5450 5449 5448 5446 5444 5442 5441 5439 5438 5437 5435 5433 5432 5430 5428 5426 5425 5423 5420 5419 5417 5415 5413 5411 5410 5409 5408 5408 5407 5406 5406 5404 5404 5403 5403 5402 5400 5399 5398 5398 5396
5472 5471 5470 5469 5469 5467 5466 5465 5465 5465 5464 5463 5462 5462 5461 5461 5460 5459 5457 5456 5454 5453 5452 5451 5450 5449 5448 5447 5446 5444 5444 5441 5440 5438 5436 5434 5432 5431 5429 5427 5426 5424 5422 5421 5419 5417 5415 5412 5410 5408 5406 5403 5402 5400 5400 5398 5398 5397 5396 5395 5394 5393 5393 5393 5391 5390 5389 5387 5386